Wind_Speed
13 14 17 19 17 15 15 15 13 11 7 4 4 5 5 6 8 10 16 24 25 24 26 22 19 21 23 23 23 23 23 24 25 25 24 24 23 22 21 20 19 20 19 17 18 17 16 15 14 13 12 12 11 11 11 11 11 12 12 12 12 12 13 14 14 15 15 15 14 15 15 14 12 12 12 12 11 11 10 10 11 12 12 13 13 12
14 17 18 18 17 14 13 14 13 12 10 5 4 3 4 4 6 9 14 21 23 23 26 23 21 24 25 24 25 24 23 23 25 25 25 24 23 22 22 21 21 21 19 18 19 18 16 15 14 14 12 12 11 11 12 11 12 12 12 12 12 12 13 13 14 14 14 15 15 14 15 15 13 12 12 12 11 11 10 10 11 12 12 13 13 13
16 19 18 16 16 15 13 13 14 13 10 6 4 3 5 3 5 8 10 17 21 22 26 25 23 26 27 27 28 27 26 24 24 25 25 25 24 23 23 23 23 22 21 20 21 19 17 15 15 14 13 12 12 12 12 12 12 12 12 12 13 13 13 13 13 13 13 14 15 14 14 15 14 12 11 11 11 11 10 10 11 12 12 12 13 13
16 18 17 17 16 15 15 15 15 14 9 7 5 2 4 4 7 10 10 17 20 20 24 25 23 26 27 28 29 28 28 28 26 26 25 25 25 24 24 24 23 22 21 21 21 19 18 17 15 15 13 12 12 12 12 12 12 12 12 12 12 12 13 13 13 12 13 13 13 13 13 14 13 12 12 12 11 11 10 10 11 12 12 12 13 13
15 14 15 18 16 14 17 17 15 14 9 7 7 5 6 8 8 9 9 17 21 19 23 24 21 23 27 27 28 28 27 29 29 26 25 26 25 24 23 22 22 22 20 20 21 20 20 18 16 15 14 13 12 13 12 12 12 11 11 12 11 12 12 12 13 12 12 13 13 12 12 13 13 12 13 12 12 11 11 10 11 12 11 12 12 12
15 12 13 18 16 14 16 15 13 13 9 8 9 8 8 7 6 8 10 17 22 19 24 28 17 15 25 27 26 27 26 29 30 27 26 27 26 26 25 23 23 22 20 19 20 20 20 18 16 15 14 13 13 13 12 12 13 12 11 12 11 12 12 13 13 13 13 13 14 14 13 13 13 13 13 12 12 11 11 10 11 12 11 11 11 11
15 12 14 18 16 15 15 14 15 14 11 8 7 7 9 7 6 8 11 16 20 16 21 29 16 8 20 28 27 27 26 27 28 27 28 28 26 27 26 24 24 23 21 21 20 19 20 18 17 17 15 14 13 13 13 13 13 12 11 12 12 12 13 13 13 14 14 13 13 14 13 13 13 12 12 12 12 12 11 11 11 12 11 11 11 11
17 15 14 15 15 17 15 14 16 15 12 8 6 9 9 7 4 8 12 13 12 12 18 26 18 11 18 27 29 28 27 26 27 28 28 28 27 26 26 25 25 23 22 23 22 19 19 18 17 17 16 15 13 13 14 14 13 13 12 12 12 13 13 13 13 13 14 14 13 13 13 13 13 12 12 12 11 11 11 11 11 12 12 12 11 10
15 15 13 14 15 17 16 15 14 12 10 8 8 9 7 6 4 9 12 8 6 9 17 23 17 10 14 26 30 28 27 27 29 31 29 29 28 26 25 25 25 24 22 23 23 20 19 19 18 17 17 16 14 13 13 14 13 13 13 12 12 13 13 13 12 12 13 13 13 12 12 13 13 13 13 12 12 11 11 11 11 12 12 12 11 10
12 13 11 14 17 14 15 17 15 11 6 4 10 10 8 7 6 10 9 7 8 7 12 22 21 10 9 24 30 26 28 30 30 32 29 28 28 27 26 25 25 25 24 23 23 21 20 19 18 17 17 17 15 14 14 13 13 13 13 13 13 13 13 13 12 12 12 12 12 11 11 12 13 13 13 12 12 11 11 11 11 11 11 11 11 11
10 12 10 10 14 13 15 17 16 14 9 5 8 10 11 9 7 8 5 5 7 3 5 17 25 17 6 19 31 28 29 32 29 29 30 29 28 27 26 26 26 26 25 23 23 23 21 19 18 17 18 18 16 16 15 13 13 13 13 13 13 13 13 13 12 12 11 11 11 11 11 11 12 12 12 12 12 11 11 11 11 11 11 11 10 10
10 14 13 10 11 11 15 17 15 14 13 10 8 8 10 8 6 4 3 5 3 2 5 9 20 22 9 13 28 30 29 30 29 29 29 30 29 28 27 26 26 25 24 24 23 23 22 20 20 19 19 18 17 16 15 14 13 12 13 13 13 13 14 13 12 12 12 11 12 12 11 11 11 11 12 12 12 12 11 11 11 10 10 10 10 9
13 16 14 11 12 14 15 17 17 12 11 13 10 8 8 5 2 3 2 5 2 1 6 9 15 17 12 12 19 26 29 27 29 30 28 28 28 28 28 26 25 26 25 25 24 24 23 21 21 21 20 20 17 16 15 14 13 12 13 14 14 14 14 14 13 13 12 12 12 12 12 11 11 11 11 11 11 11 11 11 10 11 10 10 10 9
16 15 14 12 13 17 17 17 18 14 11 16 14 10 10 5 0 1 2 4 2 3 5 9 13 8 9 11 12 19 27 25 27 30 28 27 27 28 29 26 26 28 27 25 25 25 24 23 22 22 22 21 19 18 16 15 15 14 13 14 15 15 14 14 13 13 12 12 12 12 11 11 11 11 11 11 11 12 12 10 10 11 10 10 10 9
16 13 17 17 13 18 19 17 16 13 13 20 19 13 11 10 6 2 2 2 3 4 5 7 9 3 4 6 6 12 21 23 25 30 31 28 27 28 28 27 27 29 27 26 27 26 24 24 23 22 22 21 20 18 17 17 16 14 13 14 15 16 15 14 13 13 12 12 13 12 12 12 11 11 11 11 11 11 11 11 10 11 10 10 10 9
17 14 17 19 15 18 21 18 14 10 9 15 20 17 13 12 10 5 2 2 5 5 4 6 5 2 1 3 5 10 16 22 25 29 33 31 30 29 27 27 29 29 29 29 28 26 25 25 24 22 22 22 21 18 18 18 16 15 14 13 15 16 16 15 14 13 12 12 13 12 12 11 11 11 10 11 11 10 11 11 11 10 10 10 10 9
14 15 16 17 14 17 20 20 18 13 8 5 14 19 14 10 8 4 1 3 7 3 4 7 4 2 3 3 6 10 13 20 24 27 32 34 33 31 28 28 29 29 29 29 28 27 27 26 24 23 22 21 21 20 19 18 16 16 15 14 15 15 16 16 15 14 12 12 12 12 12 11 11 11 11 11 11 11 11 11 10 10 10 10 10 10
13 13 14 16 11 13 16 18 20 18 12 6 7 10 11 10 8 6 4 5 6 2 3 8 7 4 4 3 7 11 12 17 22 27 32 34 34 31 30 31 29 29 29 29 29 28 28 26 24 24 22 20 21 21 20 18 16 16 15 15 15 14 15 15 15 16 14 12 12 12 12 11 11 12 12 12 12 11 11 11 10 10 10 10 10 9
12 9 14 17 10 12 14 15 18 20 18 12 7 4 6 9 9 8 6 4 4 2 3 5 7 7 9 7 8 12 14 15 19 25 31 34 35 33 31 31 29 28 29 30 31 29 28 27 25 25 23 21 21 21 21 18 16 16 16 15 16 15 14 14 15 16 15 15 13 13 13 12 12 13 12 12 12 11 10 10 10 10 9 9 9 9
10 9 7 11 10 12 15 15 16 18 20 18 12 8 9 10 8 9 7 6 4 2 3 3 4 7 12 11 8 10 14 14 15 22 28 31 33 34 32 29 28 28 28 29 30 29 29 27 26 26 24 21 21 21 21 20 18 17 17 17 17 16 15 15 14 14 15 15 15 14 14 13 13 13 12 11 11 11 11 11 10 10 9 8 7 8
9 8 7 9 8 12 15 16 16 16 18 20 17 13 12 10 8 8 8 8 7 4 1 4 3 5 9 10 8 8 11 12 13 18 25 25 25 29 31 28 27 28 29 29 28 28 28 27 26 26 25 23 22 22 21 19 19 18 18 18 17 17 16 15 14 13 14 15 16 15 15 14 13 13 12 12 11 11 11 11 10 9 9 8 7 7
7 8 6 3 5 11 14 15 16 16 16 19 20 17 14 11 7 6 7 8 8 8 4 3 2 3 6 8 9 10 10 11 12 17 23 24 22 27 32 31 29 30 30 29 28 26 27 28 26 26 25 24 23 22 20 19 20 20 19 18 18 17 17 16 15 14 14 14 15 16 16 15 14 13 12 12 13 13 12 11 10 9 9 8 8 8
10 8 10 13 10 8 11 13 15 17 15 15 17 18 17 14 9 6 6 6 5 8 6 5 7 4 6 8 8 10 12 12 13 15 19 22 22 26 32 34 33 32 30 28 27 26 27 28 26 25 25 24 24 23 20 19 20 20 19 19 18 18 17 16 16 15 14 14 14 15 16 16 15 14 13 13 13 14 13 12 12 11 10 10 9 9
10 11 11 14 14 11 10 12 12 15 14 13 13 14 16 15 13 10 8 7 5 6 5 2 4 3 8 9 7 8 11 12 14 15 17 20 21 24 31 34 34 33 31 29 27 27 28 27 25 25 24 24 23 23 22 21 21 21 21 20 19 18 17 17 17 16 15 15 15 15 16 15 16 15 15 14 14 13 13 14 14 12 12 11 10 10
6 9 10 10 10 8 10 11 12 15 15 15 13 12 13 14 14 12 10 8 6 7 5 2 3 3 8 10 8 8 9 11 13 15 18 21 23 26 30 32 34 34 34 31 28 28 29 26 26 27 26 25 24 23 23 23 22 21 21 21 20 19 18 18 18 17 16 16 16 15 15 15 15 15 15 15 14 14 14 15 14 13 13 13 12 12
6 7 8 10 9 4 2 2 5 11 15 15 12 10 11 12 14 13 12 12 10 7 6 1 7 8 9 8 7 7 8 10 12 14 17 20 23 26 28 29 34 37 36 33 30 30 30 28 29 30 29 29 27 24 24 24 22 21 21 22 21 20 19 19 19 18 17 17 16 16 15 15 15 15 15 15 15 15 15 15 14 13 14 14 14 13
7 8 9 12 12 9 10 10 5 4 9 12 12 12 11 11 12 12 13 11 9 7 2 3 7 10 9 6 4 5 6 7 10 13 16 18 20 23 24 26 33 38 38 35 33 32 31 30 32 32 31 29 26 25 25 24 24 22 21 23 23 21 20 20 19 19 18 17 17 16 16 16 16 15 15 15 16 16 15 16 15 15 14 14 15 14
7 9 10 13 14 12 13 12 6 6 12 12 13 16 14 13 11 13 16 12 3 4 4 8 7 8 8 5 2 2 4 4 6 10 15 17 19 20 20 21 29 38 40 38 35 33 31 30 30 31 31 30 26 25 26 25 24 23 22 24 24 22 21 20 20 20 19 18 18 17 17 17 17 17 17 16 16 16 16 16 16 17 17 16 15 15
5 8 9 11 13 12 12 11 8 9 14 15 12 14 16 17 14 13 16 11 4 4 7 6 5 7 8 8 7 5 4 4 3 7 13 16 17 18 16 17 25 34 38 37 35 32 30 29 28 28 29 28 25 25 28 28 26 25 24 24 22 21 22 22 22 22 21 20 19 19 18 17 18 18 18 18 17 16 17 17 16 16 17 16 16 16
6 9 10 11 12 12 13 14 12 11 14 13 7 5 8 15 17 13 11 11 12 12 10 6 8 11 8 8 8 6 5 5 4 7 13 16 16 15 13 14 21 29 35 37 35 33 33 31 28 27 26 24 22 25 29 30 29 27 25 23 21 20 22 23 22 23 22 21 21 20 19 18 18 19 19 19 18 17 17 17 17 15 16 16 17 17
7 8 9 10 11 12 14 16 15 13 15 9 2 7 10 4 7 5 5 6 10 13 11 7 11 13 8 7 8 8 8 8 7 8 11 13 15 15 13 14 20 27 33 36 35 36 36 33 29 28 26 24 24 26 29 30 29 28 25 24 22 22 23 24 23 23 23 22 22 22 20 19 19 18 19 19 19 18 18 18 18 17 17 16 16 17
7 6 6 8 10 12 14 15 16 16 16 5 8 11 11 10 7 8 11 13 15 12 3 9 14 12 8 7 7 8 9 8 6 8 10 10 12 14 13 15 22 27 31 34 35 34 33 31 30 30 28 26 27 27 28 29 28 25 25 26 25 24 25 27 26 26 26 25 25 24 22 21 20 19 19 20 20 20 20 20 20 20 20 19 18 17
7 7 6 8 10 11 11 9 11 14 15 4 10 10 9 10 9 8 8 11 14 13 10 12 11 8 7 6 5 5 6 6 5 6 8 9 10 10 10 14 21 26 28 30 32 34 34 34 33 33 32 31 31 30 29 29 29 26 26 28 28 27 28 29 28 28 29 28 26 24 23 23 23 21 20 21 22 21 21 22 22 23 23 23 22 20
5 6 7 7 8 10 9 6 6 6 3 7 11 9 8 8 6 6 9 11 10 6 7 9 6 5 6 5 5 5 6 6 5 4 5 10 12 11 11 14 17 20 21 24 28 32 34 36 35 35 35 35 34 32 29 28 29 29 29 31 30 30 30 30 30 31 31 29 27 25 26 27 26 25 24 24 24 23 23 23 24 25 26 26 26 25
5 6 7 7 8 8 7 7 6 3 6 9 10 8 9 8 4 5 8 7 5 3 2 1 1 3 5 6 6 7 7 6 6 4 4 9 13 13 14 15 16 17 17 19 24 27 30 35 36 36 35 34 34 33 30 29 30 30 33 35 34 33 33 33 35 37 34 32 30 29 29 30 30 28 27 28 27 26 26 26 27 28 30 30 29 28
5 6 6 7 8 6 5 6 2 4 6 5 9 12 11 8 4 6 10 7 3 2 1 2 2 4 7 8 8 10 9 9 9 7 6 7 10 12 15 15 14 15 16 17 20 21 24 29 32 32 32 32 32 32 32 32 32 31 33 34 34 33 32 32 35 35 32 31 34 35 33 34 33 32 32 33 31 29 30 30 31 32 33 31 29 29
5 6 6 6 8 7 7 6 2 5 6 4 9 13 14 11 4 5 10 9 4 2 2 2 3 4 5 8 10 11 11 11 12 11 9 8 10 13 16 17 16 16 16 17 18 19 20 22 23 25 27 28 28 28 28 30 32 32 32 32 31 31 31 32 33 32 28 28 31 33 35 36 36 37 37 35 33 32 33 34 35 35 34 32 31 32
6 5 5 6 7 8 8 7 6 5 3 3 2 3 10 13 5 3 6 8 7 3 1 2 3 4 4 6 10 11 10 9 9 11 12 11 11 13 15 19 21 19 17 17 18 19 19 19 20 21 22 23 23 22 22 25 29 32 32 31 31 31 31 32 33 31 29 29 29 31 34 37 38 38 37 35 34 35 36 38 38 37 35 34 32 33
6 5 4 6 8 8 7 9 7 2 2 2 5 5 5 7 4 1 2 4 8 6 2 2 2 4 5 7 11 13 11 7 4 7 11 12 13 14 14 16 19 19 18 18 18 18 19 19 19 19 19 20 20 20 22 23 25 28 29 29 30 30 28 28 28 28 30 34 34 34 36 38 39 38 35 33 35 36 37 38 38 36 35 33 30 28
5 5 6 8 9 8 9 9 5 2 4 4 6 8 8 6 4 4 4 0 4 6 4 3 0 2 4 6 10 11 9 7 4 4 7 9 10 12 14 15 16 17 18 17 16 17 18 18 19 20 20 21 21 22 23 24 24 25 25 26 27 26 25 24 25 27 31 36 36 33 33 35 36 36 36 35 35 34 35 36 34 33 32 28 24 23
3 5 7 9 9 10 10 9 4 4 2 6 10 14 13 10 8 6 2 2 2 4 4 3 1 1 3 5 7 7 7 8 8 6 5 7 9 10 11 11 12 14 15 15 16 17 18 19 20 20 20 21 22 23 24 24 25 24 25 26 26 26 25 24 24 26 30 33 32 29 28 29 29 31 34 35 34 32 31 29 27 26 23 18 17 18
3 5 5 5 7 8 8 5 5 5 2 5 8 14 15 9 4 1 3 2 1 3 2 2 3 2 1 3 5 6 8 9 10 8 7 9 8 7 8 6 5 7 9 11 12 13 15 17 18 19 18 18 19 21 21 22 22 22 23 24 24 26 28 27 26 28 30 31 29 26 25 26 29 32 33 31 29 28 26 24 24 22 17 13 13 14
2 4 2 4 4 3 3 1 4 4 3 4 5 7 7 3 4 6 6 4 2 1 0 2 4 3 2 1 1 3 5 6 6 5 6 7 6 5 5 3 1 3 5 6 7 8 10 13 14 16 16 17 17 18 18 19 20 21 22 20 21 26 27 25 25 27 27 26 25 25 24 26 30 32 28 23 21 22 21 20 20 17 12 11 13 12
1 1 3 5 4 3 3 4 6 5 3 5 4 2 2 4 6 7 7 5 3 2 2 3 4 3 4 3 2 2 2 3 4 6 7 5 4 4 5 4 3 4 5 6 7 8 10 11 12 13 13 14 15 15 16 18 19 19 20 19 20 23 23 21 21 24 22 19 19 21 24 26 27 24 21 20 22 23 21 19 17 15 13 12 12 11
0 1 2 2 1 2 3 6 8 5 1 1 1 2 5 4 3 4 4 4 4 5 4 3 3 3 4 3 2 2 2 1 3 4 5 5 4 4 5 7 7 7 6 6 8 9 11 11 12 13 12 12 13 12 13 15 15 15 17 18 18 19 19 18 19 20 19 18 18 19 21 22 23 21 20 22 24 24 25 25 21 16 14 12 10 9
2 1 3 2 1 3 6 7 8 6 3 3 3 3 4 4 2 1 1 2 4 6 5 4 4 4 3 2 2 1 2 1 2 3 2 3 4 4 3 6 7 7 7 8 9 10 10 11 11 12 12 13 13 13 14 15 14 13 15 16 16 15 16 16 16 18 19 19 21 22 21 20 22 22 23 26 26 25 26 26 20 15 14 13 11 10
3 2 4 2 1 5 8 7 6 5 4 3 3 3 2 2 1 1 2 3 4 6 6 5 4 4 4 2 1 1 1 0 3 4 4 3 4 3 3 4 6 7 8 9 11 11 11 11 11 12 12 13 14 14 15 14 13 12 11 11 11 12 12 11 11 12 14 16 19 22 22 21 21 21 22 24 24 23 23 21 17 16 15 12 10 10
2 3 6 6 4 6 6 5 5 4 4 3 2 2 2 2 2 2 3 4 5 7 7 5 5 4 4 2 2 3 2 2 4 5 5 5 5 4 5 5 6 6 7 9 11 12 12 12 12 12 13 14 14 14 13 12 12 11 10 10 10 10 10 9 9 9 10 12 13 16 18 19 18 18 18 18 16 15 14 13 12 11 10 9 9 10
1 2 5 5 3 4 5 6 5 4 5 7 6 5 5 5 6 6 6 6 7 7 7 6 5 4 4 3 2 2 3 4 6 7 7 7 7 7 7 7 7 6 7 10 11 10 11 14 14 13 14 15 15 14 13 13 13 12 11 10 10 10 10 10 10 10 10 10 10 11 13 15 16 17 17 15 13 12 12 12 11 10 10 11 12 12
3 2 3 3 3 6 9 8 7 6 5 7 6 6 6 6 7 7 7 8 9 8 9 8 6 4 4 4 3 3 4 4 5 6 8 9 9 8 8 9 9 8 9 11 11 9 10 13 15 15 16 16 16 14 13 14 13 12 11 11 10 10 10 10 9 9 9 9 9 10 11 12 14 15 15 14 14 14 14 14 13 13 14 15 15 16
5 7 7 5 4 7 10 9 8 8 9 8 5 5 6 7 8 8 8 8 9 9 9 9 8 7 7 7 6 5 4 4 4 4 6 7 7 7 9 11 12 11 11 11 11 10 10 14 17 18 17 16 16 15 14 14 13 13 12 11 10 10 10 9 9 9 9 9 9 10 12 12 12 13 15 15 15 15 15 15 15 15 17 18 18 19
Wind_Direction
209 214 217 216 219 219 219 227 232 243 258 252 264 270 252 237 211 198 196 193 188 184 180 172 172 173 165 171 177 172 176 177 174 175 174 174 173 169 171 177 172 168 178 179 169 173 181 182 180 179 179 178 172 164 160 158 156 154 148 141 140 141 141 140 141 138 135 132 131 132 130 130 132 131 128 127 126 124 128 135 135 137 138 136 136 135
209 219 222 219 219 223 225 228 229 240 252 250 265 242 182 207 203 190 197 194 187 183 182 175 175 177 170 173 179 177 178 179 179 179 176 177 174 171 176 177 171 173 180 176 171 178 183 182 181 180 182 178 170 170 165 160 160 157 152 148 143 144 146 144 144 141 139 136 134 136 134 133 136 138 135 131 128 126 131 138 139 141 141 141 140 139
213 224 225 221 221 225 228 228 229 235 241 233 250 223 164 176 189 188 192 188 187 187 186 183 183 183 178 176 179 181 181 179 183 185 180 179 176 175 179 178 174 177 182 178 177 183 182 183 184 181 181 175 171 175 170 165 165 162 158 154 148 147 148 148 148 146 145 142 140 141 139 137 142 144 137 133 134 131 135 140 143 146 146 145 143 142
214 228 226 220 223 225 225 229 224 216 219 230 247 201 163 190 189 191 180 175 188 191 184 183 184 185 183 181 182 183 184 181 182 187 186 182 179 178 181 182 179 182 185 181 183 184 181 184 185 182 180 175 177 179 175 173 171 167 162 157 154 150 148 150 151 149 148 146 143 145 145 142 145 146 141 142 142 137 140 145 145 147 149 148 146 146
222 231 224 219 224 221 226 233 222 213 215 225 244 242 211 208 197 201 182 168 183 193 187 181 178 185 188 186 188 188 189 187 180 182 189 186 182 180 181 184 181 184 189 185 185 183 181 187 184 181 182 178 181 181 179 179 174 173 169 161 159 153 148 150 151 151 151 148 145 149 152 147 146 149 147 147 146 142 145 148 147 149 151 150 149 150
230 227 215 215 219 218 229 234 221 220 221 222 246 244 210 198 189 200 193 175 178 188 193 187 176 188 192 191 197 196 195 194 181 179 190 188 184 183 180 181 181 187 192 185 186 184 182 188 183 180 184 181 183 183 181 182 177 179 175 165 161 155 150 149 151 154 155 153 150 151 155 151 151 154 149 147 148 147 148 151 153 153 155 153 152 154
231 226 217 213 211 213 222 226 224 224 224 236 239 201 180 180 176 180 182 178 178 184 191 188 180 181 192 196 203 201 200 202 187 181 192 189 185 187 182 179 181 188 191 183 188 189 184 188 185 183 185 182 184 185 185 184 181 183 179 172 165 157 153 150 152 156 155 155 155 153 154 153 155 156 151 151 153 152 152 156 159 159 160 158 157 157
226 225 217 209 208 211 211 222 231 224 225 243 211 191 201 200 175 162 164 169 181 186 181 184 182 167 190 203 206 203 201 203 190 182 191 191 187 189 185 181 182 188 190 183 187 192 185 187 188 185 184 184 185 188 190 186 184 186 183 180 173 162 158 156 157 158 156 156 156 156 156 155 157 157 156 158 158 158 159 162 164 164 165 164 162 161
223 223 210 204 211 212 209 222 232 219 229 237 180 179 195 182 155 154 159 159 163 166 171 184 186 161 189 206 205 204 202 200 191 184 189 193 188 187 185 184 184 187 190 185 186 191 186 186 191 187 184 185 184 188 194 190 186 188 187 186 181 171 167 165 162 161 159 158 157 159 159 158 160 160 162 164 164 165 164 166 168 167 168 167 166 166
216 214 198 205 213 212 214 229 234 212 196 142 140 140 127 125 142 149 151 157 156 158 176 190 192 174 187 199 198 202 203 202 196 187 188 192 190 186 185 187 187 188 190 186 186 191 191 189 190 188 185 185 185 187 195 194 189 191 191 190 186 179 175 173 169 164 163 162 160 162 162 161 162 165 169 170 168 171 168 169 172 170 172 171 169 170
219 201 188 203 211 211 218 235 242 215 186 135 138 133 114 111 138 150 147 155 159 188 207 196 197 196 197 195 197 204 206 205 200 190 189 192 191 187 185 188 189 192 192 187 187 192 194 191 190 190 187 187 188 187 192 195 194 196 195 192 189 185 182 181 177 168 166 165 162 164 165 165 165 167 172 172 172 176 172 174 176 173 175 175 173 175
222 206 200 203 214 220 223 234 237 210 197 202 183 138 116 111 133 148 158 178 181 220 205 200 198 201 216 203 199 205 208 208 203 195 191 190 190 187 187 190 191 194 193 187 189 194 194 192 190 191 189 189 191 188 190 194 195 198 199 194 192 192 190 187 184 175 171 170 166 167 169 170 168 169 174 177 176 177 177 179 178 174 178 178 177 179
214 212 208 209 223 228 229 234 225 204 201 210 199 150 122 100 161 176 164 197 237 159 188 194 185 195 226 227 212 209 205 207 206 202 196 191 191 188 186 189 193 196 193 186 190 195 193 193 192 192 191 190 190 188 190 194 194 197 200 195 193 197 199 195 190 185 179 175 172 171 172 173 172 172 176 179 177 176 180 185 180 177 182 183 182 184
208 209 210 220 228 220 227 234 214 198 203 210 215 194 152 119 319 234 214 208 187 99 142 174 173 190 235 233 230 213 202 204 205 204 202 194 192 192 187 187 194 199 194 187 193 198 195 195 196 195 193 191 192 189 189 193 194 195 199 197 195 198 202 200 196 193 188 182 178 177 178 177 176 176 175 177 180 177 179 186 185 183 185 186 190 191
209 210 210 214 217 206 217 232 215 206 211 205 215 222 191 173 170 187 247 206 145 116 111 158 183 226 256 221 221 198 197 206 204 202 203 196 193 195 189 187 195 201 196 190 196 200 197 197 199 198 197 195 194 193 193 197 197 196 199 199 198 199 202 203 200 198 195 190 184 183 185 181 176 178 178 178 182 180 179 185 189 190 189 190 195 197
216 227 216 204 203 198 206 221 223 239 245 204 202 215 217 204 190 192 284 104 139 150 150 174 201 242 214 201 199 180 190 206 206 205 205 198 193 192 188 189 196 200 198 193 196 196 195 199 201 200 201 197 194 195 199 203 201 198 200 200 201 200 201 205 204 201 200 196 191 189 188 185 180 182 183 181 181 182 185 187 188 192 193 194 198 200
231 239 215 189 187 192 199 212 218 234 266 231 206 209 213 216 207 207 295 167 173 174 177 186 187 184 184 190 197 186 190 203 208 210 207 200 196 192 186 191 197 198 198 197 197 195 197 202 200 200 206 202 194 195 202 206 204 202 202 201 202 202 202 205 207 206 205 201 197 196 194 191 187 185 187 188 185 186 189 186 185 192 195 195 198 202
282 261 196 171 184 192 196 208 213 225 241 256 242 220 208 213 214 215 230 210 201 180 169 185 171 170 205 207 197 197 199 207 212 213 209 203 201 195 186 189 197 200 197 197 198 197 199 203 199 199 209 208 198 197 202 204 203 204 206 204 204 205 204 205 209 210 209 205 204 203 201 198 195 193 191 192 191 190 190 186 185 193 196 195 196 201
291 269 171 164 195 192 188 204 211 220 226 231 257 256 217 220 215 209 223 247 232 158 144 179 164 180 213 215 205 205 200 205 214 211 206 202 197 192 187 187 196 202 199 197 200 200 201 203 200 200 209 210 203 201 203 203 204 208 209 207 206 206 206 206 208 211 211 209 207 206 206 204 203 202 197 194 195 193 192 189 188 193 198 200 197 198
286 281 183 173 209 198 186 200 212 214 213 222 246 250 232 237 230 214 226 254 255 187 137 168 171 199 219 216 209 211 205 209 216 205 201 201 194 190 189 187 194 204 203 200 202 203 203 205 201 201 207 209 204 204 205 204 207 210 210 209 209 207 207 208 207 209 210 209 207 207 208 209 209 209 204 200 199 198 198 196 192 194 200 202 201 201
272 256 204 168 196 211 198 199 213 213 203 210 226 234 232 236 230 220 232 244 245 253 177 156 185 212 214 211 203 200 206 214 211 192 188 191 192 194 194 188 191 203 204 202 205 204 203 205 203 201 206 208 206 207 207 204 206 211 212 212 211 209 209 209 207 207 209 208 207 208 209 211 212 213 210 206 205 206 206 203 199 202 206 206 208 211
250 234 242 224 207 215 208 205 215 214 205 207 213 223 229 231 224 218 236 239 234 257 272 119 135 215 194 197 197 194 206 209 199 191 188 190 195 198 195 186 189 202 206 204 205 203 202 205 205 202 204 207 207 207 206 205 206 210 213 213 213 213 212 212 210 208 210 210 208 209 211 212 214 216 215 212 212 211 210 210 210 211 214 214 216 219
258 258 290 293 287 255 216 205 210 213 216 217 214 219 225 226 227 221 238 252 247 274 283 134 134 162 171 183 197 199 206 204 195 196 198 203 207 204 198 193 192 198 204 206 202 198 202 207 204 203 205 207 209 207 203 204 205 207 211 214 214 214 212 214 214 211 211 212 209 211 213 215 215 216 216 217 217 214 212 215 217 217 216 217 221 224
260 259 277 284 294 280 219 190 198 211 223 233 225 221 223 223 223 216 226 255 268 281 287 138 131 161 171 180 198 199 198 200 200 200 202 210 212 207 205 205 202 198 199 201 198 194 201 205 199 202 208 207 208 207 201 204 207 206 207 211 213 214 212 214 217 215 214 212 211 213 215 217 218 218 218 220 221 219 218 220 220 220 218 219 225 230
279 263 258 263 279 254 195 179 196 204 213 229 228 219 220 225 230 227 219 226 248 274 294 49 94 178 182 179 187 192 191 195 202 203 204 210 212 210 212 213 209 202 196 195 195 194 197 199 195 200 208 209 207 206 203 206 210 209 208 209 212 214 214 216 219 220 217 215 215 215 216 218 219 220 220 221 223 222 223 225 223 222 222 222 226 230
305 285 251 252 271 269 189 219 214 192 198 219 235 235 225 223 229 232 224 207 203 237 271 155 135 161 174 173 175 185 194 198 203 205 203 207 210 214 219 216 209 206 200 192 192 194 193 193 194 199 208 210 207 205 206 209 212 212 211 210 211 213 214 217 221 224 222 220 221 220 220 221 222 223 223 223 225 224 225 229 228 226 226 226 229 229
276 288 270 264 279 299 315 318 312 199 207 218 227 234 238 234 228 236 250 238 197 193 250 85 136 161 163 164 173 178 186 198 208 207 203 206 208 212 220 216 207 208 205 194 191 195 196 196 197 200 208 212 209 206 207 210 211 210 211 210 211 212 214 218 222 226 227 226 227 226 226 227 227 228 227 227 229 228 227 230 232 232 231 230 233 233
268 280 273 265 271 275 282 294 293 252 260 256 226 221 237 244 234 231 239 245 217 176 125 94 127 168 169 180 190 158 171 185 206 211 207 207 207 207 216 214 205 205 204 197 193 195 198 201 202 204 208 211 210 207 208 212 212 210 211 211 209 211 216 219 222 227 229 229 231 231 230 230 232 233 232 231 233 234 234 234 234 235 233 230 234 237
267 279 274 267 264 254 250 265 272 257 269 273 234 214 226 230 234 244 236 234 258 216 172 141 158 161 159 184 184 167 183 183 190 217 214 210 206 204 209 211 206 204 201 198 197 198 202 206 208 211 215 216 214 208 207 213 215 214 215 213 211 215 221 222 222 226 229 230 233 233 231 231 233 235 236 234 233 236 238 238 237 238 239 235 234 237
273 274 279 279 269 257 242 237 245 254 263 267 244 225 239 222 221 241 247 247 254 233 205 191 178 163 169 201 197 186 195 194 197 218 217 213 206 200 205 210 207 204 202 202 202 205 210 213 214 218 223 227 224 213 211 216 215 214 218 221 220 222 228 228 227 228 229 230 234 236 234 233 233 235 238 238 236 234 237 240 240 240 243 240 235 236
301 270 271 284 273 273 263 235 226 241 248 254 341 4 342 296 212 239 315 312 284 256 227 172 136 137 155 198 213 208 198 199 213 218 219 219 207 195 196 202 202 202 204 205 205 205 207 210 214 219 224 230 230 225 226 227 219 211 214 223 226 226 230 234 234 233 232 230 232 233 232 233 235 235 237 239 239 236 237 242 243 242 244 243 239 239
318 279 264 273 258 268 275 239 216 226 234 237 36 21 350 346 7 4 360 15 13 351 341 113 111 116 133 164 198 201 190 198 218 211 213 226 217 199 187 189 197 202 204 204 205 206 206 209 215 220 224 229 231 232 234 235 229 220 216 221 225 227 230 235 237 238 237 233 232 232 233 235 236 236 237 237 238 238 238 241 243 245 246 246 244 243
301 287 274 273 263 271 277 244 219 228 226 197 44 26 350 341 356 1 358 19 24 16 31 69 95 127 144 158 179 188 203 229 239 211 204 212 214 205 187 185 193 197 201 205 207 208 210 214 219 223 225 227 230 233 234 234 236 235 227 225 228 230 233 237 241 244 245 241 237 235 238 239 236 235 239 239 239 241 241 242 243 245 246 247 246 244
289 282 271 273 280 280 280 290 301 277 221 82 51 26 6 356 354 8 15 17 19 26 42 49 73 140 157 174 197 219 244 246 228 215 206 201 203 201 196 195 193 192 197 206 210 211 213 217 223 226 228 230 231 233 236 236 237 237 234 232 233 234 236 240 244 249 252 251 247 242 242 243 239 236 240 244 245 246 246 246 247 246 245 245 243 241
284 275 261 251 263 276 284 297 320 17 81 71 52 34 27 25 25 41 37 23 13 37 86 70 300 227 205 198 206 221 232 229 216 213 207 203 203 204 204 203 201 199 198 204 211 214 216 220 225 229 232 236 237 238 241 242 240 239 237 236 236 237 238 240 243 246 249 251 252 250 249 250 249 247 246 246 248 250 251 251 252 251 247 244 243 243
272 277 271 245 243 249 257 266 274 112 124 89 52 40 33 37 66 72 55 42 11 11 71 174 227 243 219 202 199 201 204 210 206 195 194 199 201 210 214 208 204 203 202 205 212 215 217 221 227 232 236 240 243 244 246 245 241 238 236 236 238 238 237 241 245 249 251 250 249 251 252 253 255 256 253 248 247 251 254 254 256 256 253 250 250 251
260 265 261 241 237 235 234 242 202 151 165 116 52 31 23 27 63 106 69 52 43 38 57 141 173 200 210 211 209 196 191 201 200 191 196 202 205 216 220 214 212 211 207 210 216 217 218 222 226 231 234 238 241 243 245 243 238 234 232 235 237 237 239 245 249 252 257 255 251 253 255 254 255 256 256 254 252 254 256 255 257 259 259 257 256 255
255 256 247 236 231 228 237 240 214 193 191 163 143 13 18 21 24 131 89 54 40 38 81 170 190 196 193 206 213 201 188 191 194 193 196 202 216 231 229 220 218 216 212 214 215 215 217 219 222 225 228 232 236 237 238 238 236 235 235 238 240 243 249 254 253 251 253 256 258 261 261 259 258 258 259 259 256 254 254 255 256 258 259 258 256 255
246 244 238 238 235 230 241 243 230 207 78 149 220 256 339 8 22 131 130 42 30 25 55 135 207 220 195 188 200 205 203 197 199 212 214 215 225 239 244 236 226 217 211 212 214 214 217 220 222 224 226 229 232 233 233 234 235 236 238 239 241 245 251 255 255 253 254 257 260 261 259 257 258 259 260 260 256 253 255 258 259 258 258 259 258 254
236 237 220 224 235 233 234 238 230 119 113 179 242 267 280 297 293 256 242 244 15 9 35 86 134 235 220 208 202 208 222 229 224 228 229 233 241 249 254 253 240 224 215 214 217 219 222 225 227 228 228 229 231 233 234 235 235 237 239 240 241 244 246 248 250 251 253 256 257 255 253 252 251 251 254 255 254 253 254 256 258 257 257 259 261 258
255 263 228 224 234 226 223 224 187 139 193 246 255 257 265 289 296 276 248 107 16 358 29 50 29 143 217 235 223 220 235 229 214 212 241 269 278 273 271 268 252 235 224 219 223 227 230 234 236 237 235 234 233 234 235 236 238 239 240 242 244 244 241 238 238 242 245 248 249 249 249 251 251 252 254 253 250 249 249 250 254 255 253 255 258 252
317 285 244 245 253 236 232 228 155 133 243 261 252 255 262 277 292 230 145 118 9 0 50 45 23 58 191 246 241 234 233 225 216 223 258 286 297 291 289 290 265 245 237 230 234 242 243 242 241 239 237 235 235 235 234 234 237 238 239 241 241 238 233 229 231 236 238 237 238 241 243 245 248 252 253 248 242 239 239 242 247 249 247 250 254 243
327 292 318 10 344 296 267 247 102 71 319 256 245 273 275 238 166 170 185 201 226 285 16 44 42 58 70 25 308 259 243 235 230 232 256 291 315 306 293 296 256 256 253 235 234 240 236 236 238 237 235 233 234 234 231 229 229 230 231 230 229 231 230 228 231 237 237 233 231 233 237 240 242 243 242 239 237 237 235 233 236 241 241 245 253 254
39 21 46 38 28 33 34 71 90 67 320 265 256 311 56 113 152 178 200 219 236 273 325 16 27 38 53 47 7 344 322 245 233 227 232 257 293 283 269 267 268 269 254 230 224 223 221 226 234 238 239 239 238 232 225 223 225 226 223 216 216 226 231 229 227 231 234 232 228 231 237 239 236 234 233 236 244 248 248 246 243 243 242 239 244 251
327 131 84 58 99 136 122 119 119 118 142 246 106 102 111 120 149 184 218 250 273 290 308 335 345 4 37 46 22 349 326 258 215 213 219 222 225 235 253 265 270 271 264 248 242 241 238 236 236 238 240 240 236 229 224 224 224 225 222 215 212 220 227 223 219 220 224 228 229 234 240 236 229 230 236 240 242 241 243 247 246 238 233 232 230 233
346 84 108 71 10 114 127 134 127 115 115 133 129 121 120 119 119 116 325 306 305 307 313 326 335 340 357 18 27 353 316 278 197 183 185 195 194 200 243 269 275 281 283 279 275 271 265 255 246 242 238 233 229 227 230 232 227 218 218 216 213 218 223 224 223 223 226 231 233 236 238 230 222 225 231 234 236 236 236 240 239 229 224 224 217 216
29 75 119 126 109 106 109 118 124 121 129 145 146 147 142 121 113 45 0 354 337 328 332 344 346 335 336 353 347 290 315 214 196 197 200 206 203 206 250 280 287 293 298 304 308 306 296 278 261 249 238 230 224 220 218 220 216 210 209 210 213 219 222 224 229 230 231 236 236 233 231 225 220 222 225 227 231 233 233 235 234 231 231 230 219 218
82 100 122 129 145 149 145 154 175 198 227 235 213 207 232 258 272 290 316 329 337 342 349 3 8 343 326 322 272 248 232 213 217 216 213 213 213 228 258 275 277 284 296 306 310 312 306 289 269 254 241 229 217 209 204 203 204 205 206 206 210 215 216 215 220 221 223 229 231 228 228 225 220 220 223 225 228 230 234 239 240 237 238 238 232 230
89 63 110 121 150 178 178 191 208 231 257 258 248 241 249 261 269 278 287 294 309 323 326 338 0 356 339 342 336 286 260 245 230 219 219 223 225 236 257 263 258 266 283 290 293 299 298 285 269 254 243 231 218 211 207 206 204 202 204 209 212 213 214 213 215 218 219 222 224 228 233 232 227 224 224 226 226 227 230 234 234 232 234 237 237 236
220 233 165 148 172 168 170 191 205 206 231 249 244 239 248 256 262 271 277 281 290 303 309 315 328 333 325 326 324 311 296 273 242 225 225 225 220 226 240 245 245 253 265 271 274 280 282 275 261 248 239 232 225 217 212 209 204 196 197 207 213 216 218 218 218 221 222 221 222 228 236 238 236 236 237 235 235 238 240 241 240 239 241 243 245 245
225 230 213 204 205 189 194 212 214 203 221 239 240 246 263 269 267 269 276 281 284 291 301 308 314 314 309 304 301 305 304 289 279 269 255 243 227 222 231 236 237 240 247 255 259 258 258 257 251 243 235 229 224 219 216 215 210 200 198 206 215 223 229 232 233 235 235 234 232 233 237 240 241 243 246 245 243 245 251 254 254 252 251 252 252 252
Height
3148 3149 3149 3149 3151 3153 3154 3155 3156 3156 3157 3157 3157 3158 3158 3158 3159 3161 3162 3163 3165 3167 3170 3171 3173 3174 3176 3179 3182 3183 3185 3186 3188 3190 3191 3192 3192 3194 3195 3196 3197 3199 3200 3200 3202 3204 3204 3205 3206 3206 3207 3208 3209 3210 3211 3212 3213 3214 3215 3216 3217 3218 3219 3220 3221 3222 3223 3224 3225 3226 3227 3228 3228 3229 3230 3231 3231 3232 3233 3234 3235 3236 3237 3238 3239 3240
3147 3147 3147 3149 3151 3152 3154 3155 3156 3155 3156 3157 3158 3159 3159 3158 3160 3162 3162 3162 3164 3167 3169 3171 3173 3174 3176 3178 3181 3183 3184 3186 3187 3189 3190 3192 3193 3194 3195 3196 3197 3199 3200 3201 3202 3203 3204 3205 3206 3207 3208 3208 3210 3211 3212 3213 3214 3215 3215 3216 3218 3219 3220 3220 3221 3222 3223 3224 3225 3227 3227 3228 3229 3229 3230 3231 3232 3233 3234 3235 3236 3237 3238 3239 3240 3241
3146 3146 3146 3149 3150 3152 3153 3154 3155 3155 3154 3156 3158 3159 3158 3158 3160 3162 3163 3163 3165 3166 3169 3170 3172 3174 3176 3178 3179 3181 3182 3185 3188 3189 3190 3191 3192 3194 3194 3195 3197 3198 3199 3200 3202 3203 3204 3205 3206 3207 3208 3209 3210 3211 3212 3213 3214 3215 3216 3217 3218 3219 3220 3221 3222 3223 3224 3225 3226 3227 3228 3228 3229 3230 3231 3232 3233 3233 3234 3235 3237 3237 3238 3240 3241 3242
3145 3144 3146 3148 3149 3151 3152 3152 3153 3154 3154 3155 3157 3158 3158 3158 3160 3161 3162 3164 3165 3167 3169 3170 3172 3174 3175 3178 3179 3179 3181 3182 3185 3188 3190 3191 3192 3193 3194 3195 3196 3197 3198 3200 3201 3203 3204 3205 3206 3207 3208 3209 3210 3211 3213 3214 3214 3215 3216 3217 3218 3219 3221 3222 3223 3223 3224 3226 3226 3227 3228 3229 3230 3231 3232 3233 3233 3234 3235 3236 3237 3238 3239 3240 3241 3242
3143 3144 3145 3147 3148 3150 3151 3150 3151 3153 3153 3155 3157 3157 3157 3158 3159 3160 3161 3163 3166 3167 3169 3170 3172 3173 3174 3176 3178 3179 3181 3182 3183 3186 3190 3190 3192 3193 3194 3195 3196 3197 3198 3199 3201 3202 3204 3205 3206 3208 3209 3210 3210 3211 3213 3214 3215 3216 3217 3217 3218 3219 3221 3222 3223 3224 3225 3226 3227 3228 3229 3229 3230 3231 3232 3233 3234 3235 3236 3237 3238 3239 3240 3241 3242 3243
3142 3144 3145 3146 3147 3149 3150 3149 3151 3152 3152 3154 3156 3156 3156 3157 3158 3160 3161 3163 3166 3167 3167 3168 3170 3172 3173 3174 3177 3178 3180 3182 3183 3185 3188 3190 3190 3192 3193 3194 3196 3197 3198 3199 3201 3202 3203 3204 3206 3208 3209 3210 3211 3211 3213 3214 3215 3216 3217 3218 3219 3220 3221 3222 3224 3225 3225 3226 3227 3228 3229 3230 3231 3232 3232 3233 3235 3235 3236 3238 3238 3240 3241 3241 3242 3243
3141 3142 3144 3144 3146 3148 3149 3149 3150 3151 3152 3152 3153 3154 3155 3157 3158 3159 3161 3162 3164 3165 3165 3167 3168 3170 3172 3173 3175 3177 3180 3183 3184 3184 3187 3189 3189 3190 3192 3194 3195 3196 3197 3199 3201 3202 3203 3204 3206 3207 3208 3210 3211 3211 3213 3214 3215 3216 3217 3218 3219 3220 3221 3223 3224 3225 3226 3227 3228 3229 3229 3230 3231 3232 3233 3234 3235 3236 3237 3238 3239 3240 3241 3242 3243 3244
3139 3140 3142 3143 3145 3147 3148 3149 3148 3149 3151 3151 3151 3152 3153 3155 3156 3157 3160 3162 3162 3164 3165 3167 3168 3169 3171 3172 3174 3177 3179 3182 3183 3183 3186 3187 3188 3190 3191 3193 3195 3196 3197 3199 3200 3201 3203 3204 3206 3207 3209 3210 3211 3212 3212 3214 3215 3216 3218 3219 3220 3221 3222 3223 3224 3225 3226 3227 3228 3229 3230 3231 3232 3233 3234 3235 3235 3237 3238 3239 3240 3241 3242 3242 3243 3244
3139 3139 3141 3143 3144 3145 3147 3148 3147 3148 3151 3149 3148 3151 3153 3155 3155 3156 3158 3160 3161 3162 3164 3167 3168 3169 3171 3172 3174 3176 3177 3179 3180 3181 3184 3186 3186 3189 3191 3192 3194 3196 3197 3198 3200 3201 3203 3204 3205 3207 3209 3210 3211 3212 3213 3214 3215 3217 3218 3219 3220 3221 3222 3223 3224 3225 3226 3227 3228 3230 3230 3231 3232 3233 3234 3235 3236 3237 3238 3239 3240 3241 3242 3243 3244 3245
3138 3139 3141 3142 3143 3145 3146 3146 3146 3149 3151 3149 3147 3150 3154 3155 3156 3157 3158 3160 3161 3162 3163 3165 3166 3168 3170 3171 3172 3173 3174 3175 3178 3179 3182 3185 3186 3188 3190 3192 3194 3195 3196 3198 3200 3201 3202 3204 3205 3207 3208 3210 3211 3212 3213 3214 3215 3216 3218 3219 3220 3222 3223 3223 3224 3225 3226 3228 3229 3230 3231 3232 3233 3233 3234 3235 3236 3237 3238 3239 3241 3242 3242 3243 3244 3245
3138 3139 3140 3142 3143 3145 3146 3145 3145 3148 3150 3150 3149 3150 3153 3155 3157 3158 3159 3160 3161 3162 3161 3162 3164 3166 3167 3168 3169 3170 3171 3174 3177 3178 3180 3183 3185 3186 3189 3191 3192 3193 3195 3197 3199 3201 3202 3204 3205 3207 3208 3209 3211 3212 3212 3213 3215 3216 3217 3219 3220 3222 3223 3224 3225 3226 3227 3228 3229 3230 3231 3232 3233 3234 3234 3235 3237 3238 3238 3239 3240 3241 3242 3243 3244 3245
3138 3138 3139 3142 3143 3144 3146 3145 3144 3146 3148 3150 3150 3149 3151 3156 3158 3159 3160 3161 3161 3161 3160 3160 3162 3164 3165 3166 3167 3168 3171 3174 3176 3177 3178 3181 3183 3185 3188 3190 3191 3193 3194 3196 3198 3200 3201 3203 3205 3206 3208 3209 3210 3211 3212 3213 3214 3216 3217 3218 3220 3222 3223 3224 3225 3226 3227 3228 3229 3230 3231 3232 3233 3234 3235 3235 3236 3238 3238 3239 3240 3241 3242 3243 3244 3245
3138 3138 3139 3142 3143 3143 3144 3144 3143 3145 3147 3149 3149 3149 3153 3158 3160 3160 3160 3160 3159 3160 3160 3159 3161 3163 3163 3163 3165 3167 3170 3172 3174 3176 3178 3179 3181 3184 3186 3189 3191 3192 3193 3195 3197 3198 3200 3202 3203 3205 3207 3208 3209 3211 3212 3213 3214 3215 3217 3218 3220 3221 3223 3224 3225 3227 3228 3228 3229 3230 3232 3233 3234 3234 3235 3236 3236 3238 3239 3239 3240 3241 3242 3243 3244 3245
3135 3137 3139 3141 3142 3142 3142 3142 3142 3144 3146 3148 3150 3150 3153 3158 3162 3162 3159 3158 3159 3160 3160 3161 3162 3163 3162 3162 3163 3164 3167 3170 3173 3175 3177 3178 3180 3182 3185 3188 3190 3191 3192 3195 3196 3197 3199 3201 3202 3204 3206 3208 3209 3210 3212 3213 3214 3215 3216 3217 3219 3221 3222 3224 3225 3227 3228 3228 3229 3230 3232 3233 3234 3235 3235 3236 3237 3238 3239 3240 3241 3241 3242 3243 3244 3246
3132 3133 3136 3138 3140 3141 3141 3140 3140 3143 3144 3146 3148 3150 3152 3155 3160 3162 3160 3158 3159 3159 3160 3162 3162 3161 3161 3161 3161 3162 3165 3168 3171 3173 3175 3177 3180 3182 3184 3187 3189 3190 3192 3194 3195 3196 3198 3200 3202 3204 3205 3207 3209 3210 3211 3212 3213 3215 3216 3217 3218 3220 3222 3223 3225 3226 3227 3229 3229 3230 3232 3233 3234 3234 3235 3236 3237 3238 3239 3240 3241 3241 3242 3243 3244 3246
3131 3130 3131 3133 3136 3139 3140 3140 3140 3142 3142 3143 3146 3148 3149 3151 3154 3157 3156 3156 3158 3158 3160 3161 3160 3160 3159 3160 3160 3162 3164 3165 3168 3170 3172 3174 3177 3180 3183 3186 3188 3189 3190 3193 3194 3196 3198 3199 3201 3203 3204 3206 3208 3210 3210 3211 3213 3215 3216 3217 3218 3220 3221 3223 3225 3226 3227 3229 3229 3231 3232 3233 3233 3234 3235 3236 3237 3238 3239 3240 3241 3241 3242 3243 3244 3246
3130 3129 3129 3132 3135 3136 3139 3140 3141 3142 3141 3141 3143 3144 3146 3150 3151 3153 3154 3155 3155 3157 3160 3160 3159 3159 3159 3159 3160 3161 3162 3164 3165 3167 3169 3172 3175 3178 3181 3184 3186 3187 3189 3191 3193 3195 3196 3198 3200 3202 3203 3205 3207 3209 3210 3210 3212 3214 3215 3217 3218 3219 3220 3222 3224 3225 3227 3228 3229 3230 3232 3232 3233 3234 3235 3236 3237 3238 3238 3239 3240 3241 3243 3243 3244 3245
3130 3128 3128 3132 3135 3136 3138 3140 3141 3142 3142 3142 3142 3142 3144 3148 3150 3152 3153 3153 3153 3156 3161 3160 3160 3161 3160 3159 3160 3160 3162 3164 3163 3165 3168 3170 3173 3176 3179 3182 3185 3186 3188 3191 3192 3194 3195 3197 3199 3201 3203 3205 3207 3208 3209 3210 3212 3213 3215 3216 3218 3219 3220 3221 3223 3224 3226 3227 3228 3230 3231 3232 3233 3234 3235 3236 3237 3238 3238 3239 3240 3241 3242 3243 3244 3245
3131 3128 3128 3131 3134 3135 3138 3140 3140 3141 3143 3143 3143 3143 3144 3147 3148 3150 3151 3150 3151 3155 3159 3160 3161 3162 3160 3158 3158 3159 3161 3162 3162 3163 3166 3168 3171 3175 3178 3181 3184 3185 3187 3189 3191 3192 3194 3195 3198 3200 3202 3204 3206 3208 3209 3210 3211 3213 3214 3216 3217 3218 3220 3221 3222 3223 3225 3227 3228 3229 3230 3232 3233 3234 3235 3236 3237 3238 3238 3239 3240 3241 3242 3243 3244 3245
3132 3130 3129 3131 3133 3134 3136 3138 3138 3139 3141 3143 3144 3144 3145 3146 3146 3149 3149 3148 3149 3151 3155 3161 3163 3161 3158 3157 3158 3159 3160 3160 3161 3162 3164 3167 3171 3174 3177 3180 3183 3185 3186 3188 3189 3191 3193 3194 3197 3199 3201 3202 3204 3206 3208 3209 3211 3212 3213 3215 3216 3218 3219 3220 3221 3223 3224 3226 3227 3228 3229 3231 3232 3233 3234 3236 3236 3238 3238 3239 3240 3241 3242 3243 3244 3244
3133 3132 3130 3130 3133 3133 3133 3135 3136 3137 3139 3142 3143 3144 3144 3144 3145 3147 3148 3147 3148 3147 3148 3156 3161 3158 3156 3157 3157 3158 3159 3159 3160 3162 3165 3168 3171 3174 3176 3179 3182 3184 3185 3186 3188 3190 3192 3194 3195 3198 3200 3201 3203 3205 3206 3208 3209 3211 3212 3214 3215 3217 3218 3219 3221 3222 3223 3225 3226 3228 3229 3230 3231 3233 3234 3235 3236 3237 3238 3239 3240 3241 3242 3243 3244 3244
3133 3132 3130 3130 3131 3131 3131 3133 3135 3136 3138 3139 3141 3142 3143 3143 3144 3146 3146 3145 3146 3145 3144 3149 3157 3157 3156 3157 3157 3157 3159 3159 3160 3162 3165 3168 3170 3173 3176 3178 3181 3184 3184 3185 3187 3189 3191 3192 3194 3197 3198 3200 3202 3203 3205 3206 3208 3210 3211 3212 3214 3216 3217 3218 3220 3221 3223 3224 3225 3227 3228 3229 3230 3232 3233 3235 3236 3237 3238 3238 3239 3241 3242 3243 3244 3244
3134 3133 3132 3130 3129 3129 3130 3132 3134 3135 3137 3137 3139 3140 3141 3142 3143 3145 3146 3145 3145 3145 3144 3146 3153 3156 3155 3156 3157 3158 3159 3160 3160 3162 3164 3166 3168 3171 3174 3176 3178 3180 3183 3185 3187 3189 3190 3191 3193 3195 3197 3199 3200 3202 3204 3205 3207 3208 3210 3211 3212 3214 3216 3217 3219 3220 3222 3223 3225 3226 3227 3229 3230 3231 3232 3234 3235 3236 3237 3238 3239 3240 3241 3242 3243 3244
3134 3134 3134 3133 3131 3128 3128 3131 3134 3135 3136 3137 3137 3138 3139 3140 3141 3143 3145 3146 3146 3146 3145 3146 3151 3155 3155 3156 3158 3158 3159 3160 3160 3161 3163 3165 3167 3169 3172 3174 3175 3178 3181 3183 3186 3188 3189 3190 3193 3194 3196 3197 3199 3201 3203 3204 3205 3207 3208 3210 3211 3213 3215 3216 3218 3219 3221 3222 3224 3225 3227 3228 3229 3231 3232 3233 3234 3235 3236 3237 3238 3239 3240 3241 3242 3243
3136 3136 3135 3135 3132 3127 3126 3130 3133 3134 3136 3136 3135 3136 3138 3139 3140 3141 3143 3145 3146 3146 3145 3148 3154 3157 3156 3156 3158 3158 3159 3159 3160 3161 3162 3163 3165 3167 3169 3172 3175 3177 3178 3180 3183 3186 3187 3189 3192 3193 3194 3196 3198 3200 3201 3202 3204 3206 3207 3209 3210 3211 3213 3215 3216 3218 3219 3221 3222 3224 3226 3227 3228 3230 3231 3232 3233 3234 3236 3237 3237 3239 3240 3240 3241 3242
3138 3137 3136 3135 3132 3129 3128 3131 3132 3133 3135 3136 3135 3136 3137 3138 3140 3140 3141 3142 3144 3146 3146 3148 3153 3156 3156 3157 3158 3158 3158 3158 3159 3160 3161 3162 3164 3165 3166 3169 3172 3175 3176 3177 3181 3184 3186 3188 3190 3191 3192 3193 3196 3199 3200 3201 3203 3204 3206 3207 3208 3210 3212 3213 3215 3216 3218 3220 3221 3223 3224 3226 3227 3229 3230 3231 3232 3233 3235 3236 3236 3238 3239 3239 3240 3241
3139 3138 3137 3136 3135 3134 3134 3134 3133 3133 3134 3136 3137 3137 3138 3138 3139 3140 3140 3139 3140 3144 3147 3148 3150 3153 3155 3156 3157 3158 3158 3157 3157 3158 3159 3160 3161 3162 3163 3165 3169 3172 3174 3177 3180 3182 3185 3186 3187 3189 3191 3193 3196 3198 3199 3200 3202 3203 3204 3205 3207 3208 3210 3212 3213 3215 3217 3218 3220 3221 3223 3225 3226 3228 3229 3230 3231 3232 3233 3234 3235 3236 3237 3238 3239 3239
3139 3138 3137 3137 3136 3136 3136 3135 3134 3134 3134 3134 3136 3137 3138 3139 3139 3140 3140 3138 3139 3142 3147 3150 3151 3153 3154 3155 3157 3158 3158 3157 3157 3157 3157 3158 3159 3160 3161 3163 3166 3169 3171 3175 3178 3180 3183 3185 3186 3188 3190 3192 3195 3197 3197 3198 3200 3201 3202 3203 3205 3207 3208 3210 3212 3213 3215 3217 3218 3220 3222 3223 3225 3226 3227 3229 3230 3231 3232 3233 3234 3235 3236 3237 3238 3238
3139 3139 3137 3137 3136 3136 3136 3136 3136 3135 3134 3133 3134 3136 3138 3139 3139 3139 3138 3138 3140 3143 3147 3150 3151 3152 3154 3154 3155 3156 3157 3157 3156 3156 3157 3158 3159 3158 3159 3162 3164 3165 3168 3173 3176 3178 3181 3183 3185 3186 3187 3190 3195 3196 3196 3196 3197 3199 3200 3200 3202 3205 3206 3208 3211 3212 3214 3215 3217 3218 3220 3222 3223 3224 3225 3227 3228 3229 3230 3231 3232 3233 3234 3235 3237 3237
3138 3139 3138 3137 3136 3135 3135 3136 3136 3136 3134 3133 3132 3134 3136 3136 3138 3139 3139 3141 3142 3143 3145 3147 3148 3150 3153 3154 3154 3155 3156 3156 3156 3156 3156 3157 3159 3159 3159 3160 3161 3164 3167 3170 3174 3176 3179 3182 3183 3185 3186 3188 3192 3193 3193 3192 3193 3194 3197 3197 3199 3202 3204 3206 3209 3211 3212 3214 3215 3217 3219 3220 3221 3223 3224 3225 3226 3228 3229 3229 3231 3232 3232 3233 3235 3236
3138 3139 3138 3138 3136 3135 3134 3134 3135 3135 3134 3133 3132 3133 3134 3135 3137 3139 3140 3142 3143 3142 3144 3145 3145 3149 3152 3153 3154 3155 3155 3155 3155 3155 3155 3156 3158 3159 3160 3160 3160 3162 3165 3168 3171 3174 3178 3181 3182 3183 3184 3186 3189 3191 3191 3192 3191 3192 3194 3196 3198 3201 3202 3204 3206 3208 3210 3212 3214 3215 3217 3219 3220 3221 3222 3223 3224 3226 3227 3228 3229 3230 3231 3232 3233 3234
3139 3139 3138 3138 3137 3135 3133 3132 3133 3134 3134 3133 3134 3136 3138 3138 3138 3139 3140 3142 3142 3141 3141 3143 3145 3149 3152 3153 3154 3155 3154 3154 3155 3155 3155 3155 3156 3158 3160 3160 3160 3161 3163 3166 3168 3172 3176 3179 3180 3182 3183 3184 3186 3188 3190 3193 3195 3194 3193 3195 3197 3199 3200 3202 3204 3206 3207 3210 3212 3214 3216 3217 3218 3219 3220 3221 3222 3224 3225 3226 3226 3228 3229 3230 3231 3232
3140 3139 3139 3139 3137 3135 3133 3132 3132 3133 3133 3135 3138 3140 3142 3142 3141 3142 3143 3143 3143 3142 3142 3144 3148 3151 3152 3153 3155 3155 3154 3155 3155 3155 3155 3155 3155 3156 3157 3159 3160 3162 3164 3164 3166 3168 3172 3175 3177 3178 3180 3182 3184 3185 3187 3190 3194 3194 3193 3194 3195 3197 3198 3200 3202 3203 3204 3206 3210 3213 3214 3215 3216 3217 3218 3219 3220 3221 3223 3224 3225 3225 3226 3227 3229 3230
3140 3140 3140 3139 3138 3136 3134 3133 3133 3133 3135 3139 3142 3143 3144 3144 3144 3144 3145 3144 3144 3144 3145 3148 3151 3152 3153 3154 3154 3154 3155 3155 3155 3155 3155 3155 3155 3155 3156 3157 3158 3160 3162 3164 3165 3167 3169 3171 3173 3175 3177 3179 3181 3184 3186 3188 3191 3192 3192 3193 3194 3195 3197 3199 3200 3200 3201 3204 3207 3209 3211 3213 3213 3213 3214 3216 3218 3219 3220 3221 3222 3223 3224 3225 3226 3226
3140 3140 3140 3140 3139 3138 3137 3136 3135 3138 3141 3144 3144 3145 3146 3146 3146 3146 3147 3147 3147 3147 3148 3150 3152 3152 3153 3153 3153 3154 3155 3154 3154 3154 3154 3154 3154 3155 3157 3156 3156 3157 3160 3162 3165 3167 3169 3170 3171 3173 3175 3178 3180 3183 3185 3186 3188 3189 3190 3190 3192 3194 3195 3197 3198 3198 3199 3202 3205 3207 3208 3210 3210 3210 3210 3212 3215 3216 3217 3218 3219 3219 3219 3220 3222 3224
3140 3140 3139 3139 3139 3139 3139 3138 3138 3142 3145 3146 3146 3146 3147 3147 3147 3148 3148 3148 3148 3149 3149 3150 3151 3152 3152 3153 3153 3154 3154 3154 3154 3154 3154 3154 3155 3156 3157 3157 3156 3157 3158 3160 3162 3164 3166 3168 3170 3172 3174 3176 3178 3180 3181 3182 3184 3185 3187 3188 3189 3192 3193 3195 3195 3196 3198 3200 3201 3203 3205 3207 3207 3208 3209 3210 3212 3213 3215 3215 3215 3215 3215 3218 3221 3223
3139 3139 3139 3139 3139 3139 3139 3139 3140 3142 3145 3145 3146 3148 3149 3149 3149 3149 3150 3149 3149 3150 3150 3150 3151 3152 3152 3152 3152 3153 3154 3154 3154 3154 3154 3154 3154 3155 3156 3157 3157 3157 3158 3159 3161 3162 3164 3166 3168 3170 3172 3173 3175 3176 3177 3178 3179 3181 3183 3184 3186 3188 3190 3192 3192 3193 3196 3198 3199 3200 3201 3203 3204 3205 3207 3209 3210 3211 3211 3211 3211 3212 3213 3216 3218 3219
3138 3138 3138 3139 3139 3139 3139 3140 3140 3142 3144 3145 3146 3148 3150 3151 3150 3150 3151 3150 3150 3150 3150 3150 3150 3151 3152 3152 3152 3153 3154 3153 3153 3153 3154 3155 3155 3155 3155 3155 3156 3157 3158 3159 3160 3161 3163 3165 3166 3168 3170 3171 3173 3174 3175 3175 3176 3177 3179 3181 3183 3184 3186 3188 3188 3189 3191 3194 3195 3197 3197 3198 3199 3201 3203 3207 3208 3207 3206 3206 3207 3209 3209 3210 3212 3214
3138 3138 3138 3139 3139 3139 3140 3140 3140 3142 3145 3147 3148 3149 3150 3151 3151 3151 3151 3151 3151 3151 3150 3150 3150 3150 3151 3152 3152 3153 3154 3154 3154 3154 3155 3156 3156 3156 3156 3155 3155 3156 3157 3158 3159 3161 3162 3163 3165 3167 3168 3169 3170 3171 3172 3173 3174 3174 3175 3177 3178 3180 3182 3184 3185 3186 3187 3189 3191 3193 3193 3194 3195 3197 3200 3202 3203 3203 3203 3203 3204 3205 3205 3205 3208 3210
3138 3138 3138 3139 3139 3139 3140 3140 3141 3143 3146 3147 3148 3149 3149 3150 3151 3151 3151 3152 3152 3151 3150 3150 3150 3150 3151 3152 3152 3153 3155 3156 3157 3157 3157 3157 3157 3157 3156 3155 3155 3155 3157 3158 3160 3161 3162 3163 3164 3165 3166 3167 3168 3169 3170 3171 3171 3172 3173 3174 3175 3177 3179 3181 3181 3183 3184 3186 3187 3189 3189 3190 3191 3193 3196 3198 3198 3199 3199 3199 3199 3200 3201 3203 3205 3207
3138 3138 3137 3138 3138 3138 3138 3139 3141 3143 3145 3147 3148 3148 3148 3149 3150 3150 3151 3152 3152 3151 3151 3151 3151 3151 3152 3153 3154 3154 3155 3157 3159 3158 3157 3158 3158 3157 3156 3155 3155 3156 3157 3159 3159 3160 3161 3162 3162 3163 3164 3165 3166 3167 3168 3169 3169 3170 3171 3172 3173 3175 3177 3178 3179 3180 3181 3182 3184 3185 3186 3187 3188 3190 3192 3194 3195 3195 3195 3195 3195 3196 3198 3201 3203 3204
3138 3138 3137 3137 3137 3136 3137 3138 3140 3142 3144 3146 3147 3146 3147 3148 3149 3150 3150 3151 3150 3150 3151 3151 3151 3152 3152 3153 3154 3155 3155 3156 3158 3159 3159 3159 3159 3158 3157 3157 3157 3157 3158 3158 3159 3160 3161 3161 3161 3162 3163 3164 3165 3166 3166 3167 3168 3169 3170 3171 3172 3173 3174 3175 3176 3177 3178 3180 3182 3183 3184 3185 3186 3186 3188 3190 3192 3191 3191 3192 3193 3194 3195 3198 3199 3200
3139 3138 3138 3138 3137 3138 3138 3139 3141 3144 3145 3146 3146 3146 3146 3147 3148 3149 3150 3149 3149 3150 3150 3151 3152 3152 3153 3153 3154 3155 3156 3156 3158 3160 3160 3160 3160 3160 3159 3159 3158 3158 3158 3159 3159 3160 3160 3161 3161 3162 3162 3164 3164 3165 3165 3166 3167 3168 3169 3169 3171 3171 3172 3174 3176 3176 3177 3179 3181 3182 3182 3182 3182 3183 3184 3187 3188 3188 3188 3190 3192 3192 3193 3195 3196 3197
3138 3139 3140 3140 3140 3140 3141 3142 3144 3146 3146 3146 3146 3146 3147 3147 3148 3148 3149 3149 3149 3150 3150 3151 3153 3153 3154 3153 3153 3155 3156 3157 3157 3158 3159 3159 3159 3160 3160 3159 3159 3159 3159 3159 3160 3160 3160 3161 3161 3162 3163 3164 3165 3165 3166 3166 3166 3167 3168 3168 3169 3170 3171 3173 3175 3175 3175 3177 3179 3180 3181 3180 3180 3182 3183 3185 3186 3187 3187 3189 3192 3192 3192 3193 3194 3195
3139 3139 3140 3140 3140 3141 3142 3143 3145 3146 3146 3145 3146 3146 3147 3148 3148 3148 3149 3149 3150 3150 3150 3152 3153 3153 3154 3154 3154 3154 3155 3155 3155 3156 3157 3158 3158 3158 3158 3158 3159 3159 3159 3160 3160 3160 3160 3161 3161 3161 3162 3163 3164 3166 3167 3166 3166 3167 3168 3168 3169 3170 3171 3172 3173 3174 3175 3176 3178 3179 3179 3179 3179 3181 3182 3183 3185 3186 3188 3189 3190 3190 3191 3192 3193 3194
3139 3140 3141 3141 3141 3142 3143 3144 3145 3146 3145 3145 3146 3146 3147 3148 3148 3148 3148 3149 3149 3149 3150 3151 3151 3152 3153 3154 3154 3154 3154 3154 3154 3155 3156 3157 3157 3157 3158 3158 3159 3159 3159 3159 3159 3160 3160 3161 3161 3162 3162 3162 3163 3164 3165 3166 3166 3167 3167 3168 3169 3170 3171 3172 3172 3173 3174 3175 3176 3177 3178 3178 3178 3179 3181 3182 3183 3184 3186 3187 3188 3188 3189 3190 3191 3192
3140 3141 3142 3142 3142 3143 3144 3145 3145 3146 3146 3146 3146 3147 3147 3148 3148 3148 3148 3148 3148 3148 3149 3150 3150 3151 3152 3153 3153 3153 3153 3154 3154 3154 3155 3156 3156 3157 3157 3158 3158 3159 3159 3159 3159 3160 3161 3161 3162 3162 3162 3163 3163 3163 3164 3165 3165 3166 3166 3167 3168 3169 3170 3171 3171 3172 3173 3174 3175 3176 3177 3177 3177 3178 3179 3179 3180 3182 3183 3184 3185 3187 3187 3188 3190 3191
3141 3141 3142 3143 3143 3144 3145 3145 3145 3146 3146 3146 3147 3147 3147 3147 3148 3148 3148 3148 3148 3148 3148 3149 3150 3150 3150 3151 3152 3152 3153 3153 3153 3153 3154 3155 3156 3156 3157 3158 3158 3159 3159 3159 3159 3160 3161 3161 3161 3162 3162 3162 3163 3163 3164 3164 3165 3165 3166 3167 3168 3169 3170 3170 3171 3172 3172 3173 3174 3175 3175 3176 3177 3177 3177 3178 3179 3181 3182 3182 3184 3186 3186 3187 3189 3190
3141 3142 3142 3143 3143 3144 3145 3145 3145 3146 3146 3146 3146 3147 3147 3147 3147 3148 3148 3148 3147 3148 3148 3149 3149 3149 3149 3150 3151 3152 3153 3153 3154 3154 3154 3154 3155 3155 3156 3157 3158 3158 3158 3158 3158 3159 3160 3160 3161 3161 3162 3162 3163 3163 3164 3164 3165 3166 3166 3167 3167 3168 3169 3170 3170 3171 3172 3172 3173 3174 3174 3175 3176 3176 3176 3177 3178 3179 3180 3182 3184 3185 3186 3186 3187 3188
3141 3142 3142 3143 3144 3144 3144 3144 3145 3145 3145 3145 3146 3146 3146 3146 3147 3147 3147 3147 3147 3147 3147 3148 3149 3149 3149 3149 3150 3151 3151 3152 3152 3153 3153 3154 3154 3155 3155 3156 3156 3157 3157 3156 3157 3158 3159 3159 3160 3161 3161 3162 3162 3163 3163 3164 3164 3165 3165 3166 3167 3168 3168 3168 3169 3170 3170 3171 3172 3172 3173 3174 3175 3175 3175 3176 3177 3178 3179 3181 3183 3184 3184 3184 3185 3186
3141 3141 3141 3142 3143 3143 3144 3144 3144 3145 3145 3145 3145 3146 3146 3146 3146 3146 3147 3147 3147 3147 3147 3147 3148 3148 3148 3149 3149 3150 3150 3150 3150 3151 3151 3151 3152 3152 3153 3154 3154 3154 3155 3155 3155 3156 3157 3158 3159 3160 3161 3161 3162 3162 3163 3164 3164 3165 3165 3166 3166 3167 3167 3168 3168 3169 3169 3170 3171 3171 3172 3173 3174 3174 3174 3174 3176 3177 3178 3179 3180 3181 3181 3182 3182 3183